Wind_Speed
5 5 5 5 4 4 3 2 2 3 3 4 4 4 4 4 4 4 4 4 4 4 4 4 4 4 3 3 3 3 2 3 3 3 3 3 3 4 4 4 5 6 7
5 6 6 6 6 5 5 4 3 3 4 4 5 5 5 5 5 5 5 5 5 5 5 5 5 4 4 4 3 3 3 2 2 2 2 2 3 3 4 4 5 6 7
7 7 8 8 7 7 6 5 4 4 4 4 5 5 6 6 6 6 6 6 6 6 6 6 6 6 5 5 5 4 3 2 2 1 1 1 2 3 3 4 5 6 6
8 8 9 9 9 8 7 6 6 5 4 5 5 6 6 6 6 7 7 7 7 7 7 7 7 7 6 6 6 5 4 3 2 2 1 1 1 2 3 3 4 5 6
8 9 9 10 10 9 8 8 7 6 5 6 6 6 7 7 7 7 7 7 8 8 8 8 8 8 7 7 6 6 6 5 4 3 2 1 0 2 3 3 5 5 6
11 10 10 10 10 10 9 8 7 6 6 6 6 7 7 8 8 8 9 9 9 9 9 9 9 9 8 8 7 7 6 6 5 4 3 2 2 2 3 4 5 5 5
11 11 11 11 12 11 11 9 8 7 6 6 7 7 8 8 9 9 10 10 10 10 10 10 10 10 9 9 8 8 7 6 6 5 5 4 4 4 4 4 5 5 5
10 11 12 12 13 13 11 10 9 8 7 7 7 8 9 9 10 10 10 11 11 11 11 11 11 11 10 10 9 9 8 7 7 7 7 6 6 6 5 5 5 5 5
9 11 12 13 13 13 12 11 9 8 8 8 8 9 9 10 10 11 11 11 11 11 11 11 11 11 11 11 10 9 8 8 8 9 8 7 7 7 7 6 6 5 5
11 11 13 13 14 14 13 12 10 10 9 9 9 9 10 10 11 11 11 11 11 11 11 11 11 11 12 11 10 8 8 8 9 9 9 8 7 8 8 7 7 6 6
13 14 15 15 15 15 14 12 12 11 10 9 10 10 10 11 11 11 11 11 11 11 11 11 11 11 11 10 9 8 7 8 8 8 8 8 7 8 9 9 8 8 7
14 14 16 17 16 15 15 14 13 12 11 11 11 10 10 10 10 10 9 10 10 10 10 10 10 10 10 9 8 7 7 7 8 8 8 7 7 7 8 9 9 8 8
15 16 16 18 18 17 16 15 14 13 13 12 12 11 11 10 9 9 8 8 8 8 8 8 8 8 8 8 7 6 6 6 7 8 7 7 6 7 8 8 8 8 8
14 15 16 18 19 18 17 15 14 14 13 12 12 11 10 9 9 8 7 7 6 6 5 6 6 7 7 7 6 6 5 6 6 7 7 6 6 7 7 8 8 8 9
16 16 17 18 20 19 18 16 15 14 13 11 10 10 9 8 8 7 7 6 5 5 5 5 5 6 6 7 6 6 5 5 6 6 6 5 6 6 7 8 8 8 9
15 17 17 17 19 19 17 16 15 14 12 10 9 9 8 7 6 6 6 5 4 4 4 4 4 4 5 5 5 5 4 4 4 4 5 5 5 5 6 7 7 8 9
13 16 16 17 19 19 17 16 16 14 12 10 9 8 6 6 5 4 4 3 2 2 2 2 2 2 3 4 4 4 4 3 3 3 3 3 4 4 5 6 7 7 8
11 14 16 16 17 18 18 16 14 13 11 10 9 7 6 6 5 4 3 3 3 2 1 1 1 1 2 3 4 4 4 3 3 3 3 3 4 4 5 6 7 8 8
10 13 15 15 15 16 17 15 13 12 11 10 9 8 7 6 5 4 4 3 3 2 1 1 1 1 1 2 3 4 4 3 3 3 3 3 3 4 4 5 6 7 8
9 10 14 16 16 17 16 15 14 13 12 10 10 9 8 7 6 5 5 4 3 2 2 1 1 1 1 2 2 4 5 4 4 4 3 3 3 3 4 4 5 6 7
8 10 13 16 17 18 16 15 14 14 12 11 10 10 9 8 7 7 6 5 4 3 2 2 2 2 2 2 3 3 4 4 5 5 4 3 2 2 3 3 3 4 5
6 11 14 15 17 17 15 15 15 15 13 12 11 11 10 10 9 7 6 5 4 3 2 2 2 2 2 2 3 3 4 4 5 5 4 3 3 2 3 3 3 3 4
7 11 13 15 16 17 15 15 15 14 13 12 12 12 11 10 9 8 6 5 4 3 3 2 2 2 3 3 3 3 4 4 5 5 5 4 3 3 3 3 4 4 5
6 9 13 15 16 17 16 16 15 15 14 14 14 13 12 11 9 8 7 6 5 4 2 2 2 2 2 2 3 3 4 4 5 5 5 5 4 4 4 4 5 6 6
6 9 12 14 15 16 17 16 16 16 16 15 14 13 12 11 10 9 8 7 5 4 3 2 1 1 1 2 3 3 4 5 5 5 5 5 5 5 5 5 6 6 7
6 9 11 13 14 15 16 16 16 16 16 15 15 13 12 11 11 10 9 8 6 5 4 3 2 2 2 2 3 4 4 5 6 6 6 6 6 6 7 7 7 7 8
Wind_Direction
248 223 211 204 200 198 207 230 261 282 298 305 312 317 318 315 313 309 313 317 322 324 325 324 326 327 331 334 335 339 354 20 40 47 57 69 84 93 106 114 111 109 107
249 228 215 205 204 207 212 225 242 261 283 293 299 304 308 307 306 305 308 310 311 313 314 315 314 313 314 311 311 318 332 351 16 35 51 67 88 98 108 118 118 116 114
252 233 220 211 209 210 214 221 230 246 265 279 288 294 299 302 303 300 303 303 302 305 307 308 308 307 305 303 302 304 310 319 340 360 37 71 94 104 117 124 124 124 124
243 231 221 214 211 211 215 221 227 237 254 270 280 288 292 294 296 297 298 298 298 299 300 302 304 305 302 299 297 298 301 305 302 302 335 44 92 123 132 134 141 137 134
240 233 223 216 213 214 216 219 222 232 250 263 275 283 286 288 288 289 290 291 292 293 295 296 297 300 299 298 296 293 294 296 294 286 286 278 209 159 151 146 151 148 142
247 238 223 216 216 215 215 217 221 230 246 259 270 280 283 284 283 284 286 287 288 290 290 290 293 295 294 293 292 290 289 286 282 279 272 259 224 187 173 162 161 159 157
249 235 221 218 215 216 215 216 221 229 243 256 268 276 279 280 281 282 285 286 287 289 289 289 289 292 292 290 289 288 285 281 271 269 265 251 226 205 187 178 173 174 171
250 231 225 220 218 219 219 220 223 230 241 252 265 272 277 281 282 283 283 284 286 287 288 290 287 287 289 288 287 286 284 277 271 271 265 252 236 216 200 193 189 188 186
250 234 222 220 221 220 219 220 225 235 244 253 263 271 278 282 283 283 283 284 286 288 290 290 288 284 287 290 288 285 282 277 272 271 265 256 247 224 211 206 198 199 199
250 235 222 220 220 220 221 221 225 234 244 253 262 269 275 278 281 282 283 284 284 286 288 290 288 284 287 291 290 286 281 278 274 272 265 260 250 236 223 217 211 205 208
247 233 225 222 217 217 221 223 228 235 243 252 260 267 273 277 278 284 284 281 283 285 285 286 286 286 288 289 289 286 280 276 272 273 271 259 252 242 228 222 221 217 216
245 240 231 222 217 215 219 224 229 236 243 250 257 265 272 276 277 284 284 282 285 283 281 282 283 286 288 289 292 288 281 277 270 270 270 265 255 243 233 228 227 227 228
251 239 227 222 218 215 217 222 228 238 244 248 255 261 266 270 273 280 282 285 288 280 276 279 283 285 289 291 292 290 284 277 276 272 270 262 253 245 240 237 231 231 232
251 234 230 224 218 216 216 219 227 236 241 244 250 256 259 263 270 276 281 284 282 278 281 281 283 288 289 294 298 296 292 283 275 275 272 265 256 251 241 237 235 234 236
243 229 227 225 216 216 216 220 227 233 235 239 246 246 248 255 262 266 273 270 270 273 276 277 277 282 289 295 301 303 301 291 278 274 270 264 259 256 245 237 237 240 241
241 230 226 221 215 213 213 218 223 228 229 232 233 236 238 243 246 255 257 253 262 263 265 273 278 285 296 301 306 309 305 303 289 275 272 270 268 259 250 242 238 243 244
232 226 222 219 210 206 211 217 219 220 219 217 223 230 227 226 227 231 232 231 235 238 250 267 278 296 309 314 320 325 320 317 313 294 286 281 276 268 252 246 243 247 249
230 219 212 213 204 207 212 213 214 210 211 214 221 222 215 209 207 199 190 180 180 182 197 230 270 316 324 333 338 342 343 333 326 315 306 291 278 273 263 254 251 250 252
228 215 213 209 201 202 200 202 203 204 209 213 211 207 202 198 193 181 169 163 168 169 165 143 115 27 351 346 350 354 357 356 347 343 334 312 289 275 269 261 257 256 256
223 216 208 210 200 191 191 197 198 200 205 208 202 199 193 187 183 176 168 165 165 156 144 123 93 64 22 358 352 355 0 5 3 351 342 329 305 285 275 267 265 266 259
213 208 203 202 197 193 194 197 198 199 201 201 198 194 188 182 178 174 171 170 167 158 146 124 92 63 29 8 5 5 4 8 8 2 354 347 329 310 294 284 280 278 266
213 199 193 194 194 190 192 195 197 198 198 196 192 186 183 181 178 175 171 169 165 157 140 117 99 76 56 44 33 22 18 15 11 9 9 7 352 331 306 294 294 288 279
193 188 192 193 189 187 190 193 195 192 188 190 186 183 182 182 181 179 177 177 173 163 141 120 105 81 71 68 53 36 26 20 15 8 2 360 354 339 318 304 298 293 288
173 187 190 190 189 190 191 189 190 189 188 187 185 184 185 187 187 188 189 187 182 175 162 141 114 91 78 65 49 30 19 14 10 5 0 356 349 340 324 310 299 291 286
162 175 183 185 188 193 194 190 189 191 189 187 188 189 190 193 195 197 198 196 192 189 187 181 163 109 53 33 22 16 11 8 3 357 353 348 343 337 328 318 305 296 290
158 173 182 185 191 194 194 194 191 192 192 192 193 196 197 199 203 205 207 206 206 207 211 221 240 266 299 322 337 346 349 348 350 347 344 342 336 330 325 319 311 304 298
Height
5893 5894 5895 5896 5897 5898 5899 5900 5901 5902 5902 5902 5902 5902 5902 5901 5900 5900 5899 5898 5898 5897 5896 5896 5895 5894 5894 5893 5893 5892 5892 5892 5891 5891 5891 5890 5890 5889 5889 5889 5889 5889 5889
5892 5893 5894 5895 5896 5898 5899 5900 5901 5901 5902 5902 5902 5902 5902 5901 5900 5900 5899 5898 5898 5897 5896 5896 5895 5895 5894 5893 5893 5892 5892 5892 5891 5891 5891 5891 5890 5890 5889 5889 5890 5890 5890
5891 5892 5893 5894 5896 5897 5898 5899 5900 5901 5901 5901 5902 5902 5901 5901 5900 5900 5899 5898 5897 5897 5896 5895 5895 5894 5894 5893 5893 5892 5892 5892 5891 5891 5891 5891 5890 5890 5890 5890 5890 5891 5891
5889 5890 5892 5893 5895 5896 5897 5898 5899 5900 5900 5901 5901 5901 5901 5901 5900 5900 5899 5898 5897 5897 5896 5895 5894 5894 5893 5892 5892 5892 5891 5891 5891 5891 5891 5891 5891 5890 5890 5891 5891 5892 5892
5888 5889 5890 5892 5893 5894 5896 5897 5898 5899 5900 5900 5901 5901 5901 5900 5900 5899 5898 5898 5897 5896 5895 5895 5894 5893 5892 5892 5892 5891 5891 5891 5891 5891 5890 5890 5891 5891 5891 5891 5892 5892 5893
5886 5887 5889 5890 5892 5893 5894 5896 5897 5898 5899 5899 5900 5900 5900 5899 5899 5899 5898 5897 5896 5895 5895 5894 5893 5893 5892 5891 5891 5891 5890 5890 5890 5890 5890 5890 5890 5891 5891 5891 5892 5893 5893
5884 5885 5887 5888 5890 5892 5893 5894 5896 5897 5897 5898 5898 5899 5899 5898 5898 5898 5897 5896 5896 5895 5894 5893 5892 5892 5891 5890 5890 5890 5890 5889 5889 5889 5889 5889 5890 5890 5890 5891 5892 5893 5893
5881 5882 5884 5886 5888 5890 5892 5893 5894 5895 5896 5897 5897 5897 5897 5897 5897 5896 5896 5895 5894 5894 5893 5892 5891 5890 5890 5889 5889 5889 5889 5889 5888 5888 5888 5888 5889 5889 5890 5891 5891 5892 5893
5878 5879 5882 5884 5886 5888 5890 5891 5892 5894 5895 5895 5896 5896 5896 5896 5895 5895 5894 5894 5893 5892 5891 5890 5890 5889 5888 5888 5888 5888 5888 5887 5887 5887 5887 5887 5888 5888 5889 5890 5890 5892 5893
5875 5877 5879 5881 5884 5886 5888 5889 5890 5892 5893 5894 5894 5894 5894 5894 5894 5893 5893 5892 5891 5891 5890 5889 5888 5887 5887 5886 5886 5886 5886 5886 5885 5885 5885 5886 5886 5887 5888 5889 5890 5891 5892
5872 5874 5876 5879 5881 5884 5886 5887 5889 5890 5891 5892 5893 5893 5892 5892 5892 5892 5891 5890 5890 5889 5888 5887 5886 5885 5885 5884 5884 5885 5885 5884 5884 5884 5884 5884 5885 5886 5887 5888 5889 5889 5890
5869 5870 5872 5875 5878 5881 5883 5885 5887 5888 5889 5890 5890 5891 5891 5890 5890 5890 5889 5888 5888 5887 5887 5886 5885 5884 5883 5883 5883 5883 5883 5883 5882 5882 5882 5883 5883 5884 5885 5886 5887 5888 5889
5865 5866 5868 5871 5875 5878 5880 5882 5884 5885 5887 5888 5888 5888 5888 5888 5888 5888 5888 5887 5886 5885 5885 5884 5883 5883 5882 5882 5882 5882 5882 5882 5881 5881 5881 5881 5882 5883 5884 5885 5885 5886 5887
5861 5862 5864 5867 5871 5874 5877 5879 5881 5883 5884 5885 5886 5886 5886 5886 5887 5886 5886 5885 5885 5884 5884 5883 5882 5881 5881 5880 5880 5880 5880 5880 5880 5880 5880 5880 5881 5881 5882 5883 5883 5884 5885
5854 5857 5860 5863 5867 5870 5874 5876 5878 5880 5881 5882 5884 5884 5885 5885 5885 5885 5885 5884 5883 5883 5883 5882 5881 5881 5880 5879 5879 5879 5879 5879 5879 5879 5879 5879 5879 5880 5880 5881 5882 5882 5883
5849 5852 5856 5860 5863 5867 5870 5873 5875 5877 5879 5880 5881 5882 5883 5883 5883 5884 5883 5883 5882 5882 5882 5881 5881 5880 5879 5878 5878 5878 5878 5878 5877 5878 5878 5878 5878 5878 5878 5879 5880 5880 5881
5846 5849 5852 5856 5860 5863 5867 5870 5872 5874 5876 5878 5879 5880 5881 5882 5882 5882 5882 5882 5881 5881 5881 5881 5880 5879 5879 5878 5877 5877 5877 5877 5876 5876 5876 5876 5876 5876 5877 5877 5878 5878 5879
5843 5846 5849 5852 5855 5860 5864 5868 5870 5872 5874 5876 5877 5878 5879 5880 5880 5881 5881 5881 5881 5881 5881 5880 5880 5879 5878 5878 5877 5877 5876 5876 5875 5875 5875 5875 5875 5875 5875 5875 5876 5876 5877
5841 5844 5846 5849 5853 5856 5861 5865 5868 5870 5872 5874 5875 5877 5878 5878 5879 5880 5880 5880 5880 5880 5880 5880 5879 5879 5878 5878 5877 5877 5876 5875 5875 5874 5874 5874 5874 5874 5874 5874 5874 5875 5875
5839 5840 5842 5846 5849 5854 5858 5862 5865 5868 5870 5872 5873 5875 5876 5877 5878 5879 5880 5880 5880 5880 5880 5880 5879 5879 5878 5878 5877 5877 5876 5875 5874 5874 5873 5873 5873 5872 5872 5872 5873 5873 5873
5837 5838 5840 5844 5848 5852 5856 5860 5863 5866 5868 5870 5872 5873 5875 5876 5878 5879 5879 5879 5880 5880 5880 5879 5879 5878 5878 5877 5877 5876 5876 5875 5874 5873 5873 5872 5872 5871 5871 5871 5871 5871 5871
5836 5838 5839 5842 5846 5851 5855 5858 5861 5864 5866 5868 5870 5872 5873 5875 5877 5878 5878 5879 5879 5879 5879 5879 5879 5878 5878 5877 5877 5876 5875 5875 5874 5873 5872 5872 5871 5870 5870 5870 5870 5869 5869
5835 5837 5839 5842 5846 5849 5853 5857 5859 5861 5864 5867 5869 5871 5873 5874 5876 5877 5877 5878 5879 5879 5879 5878 5878 5878 5878 5877 5877 5876 5875 5875 5874 5873 5872 5871 5871 5870 5869 5869 5868 5868 5868
5835 5836 5838 5841 5845 5848 5852 5855 5858 5860 5863 5866 5868 5870 5872 5873 5875 5876 5877 5877 5878 5878 5878 5878 5878 5877 5877 5877 5876 5876 5875 5874 5874 5873 5872 5871 5870 5869 5868 5868 5867 5866 5866
5835 5836 5837 5840 5844 5848 5851 5854 5857 5859 5862 5865 5867 5869 5871 5872 5874 5875 5876 5876 5877 5877 5877 5877 5877 5877 5877 5876 5876 5875 5874 5873 5873 5872 5871 5870 5869 5868 5867 5866 5865 5865 5864
5836 5837 5838 5841 5844 5847 5850 5853 5855 5858 5861 5864 5866 5868 5870 5871 5872 5873 5874 5875 5875 5876 5876 5876 5876 5876 5875 5875 5875 5874 5873 5872 5871 5870 5869 5868 5867 5866 5865 5864 5863 5862 5862